RYR9465 EDLV-LDPL

Flight info

Callsign RYR9465
Flight time N/A
Altitude 37000
Route ERKUM1R ERKUM L179 MEVEL Z841 GMH DCT NEGIX DCT DINKU M867 XERUM DCT BAVAX DCT RADIZ DCT VEKEN DCT GIRDA
Aircraft B738/M-SDE2E3FGHIRWXY/LB1

Departure

Time 2026-04-30 14:29
Airport Weeze (Niederrhein) Airport (EDLV)

Arrival

Time N/A
Airport Pula Airport (LDPL)
Time Latitude Longitude Altitude Speed Heading
2026-04-30 14:16 51.59995 6.14862 112 ft 0 kts 89°
2026-04-30 14:21 51.59995 6.14846 108 ft 3 kts 90°
2026-04-30 14:21 51.59995 6.14815 110 ft 2 kts 81°
2026-04-30 14:21 51.59982 6.14799 109 ft 1 kts
2026-04-30 14:22 51.59974 6.14798 107 ft 1 kts
2026-04-30 14:22 51.59973 6.14798 107 ft 0 kts
2026-04-30 14:25 51.59986 6.14799 111 ft 12 kts
2026-04-30 14:26 51.60048 6.14538 109 ft 16 kts 271°
2026-04-30 14:26 51.60051 6.14362 110 ft 18 kts 273°
2026-04-30 14:26 51.60064 6.13787 110 ft 25 kts 272°
2026-04-30 14:27 51.60070 6.13521 111 ft 23 kts 271°
2026-04-30 14:27 51.60076 6.13258 109 ft 25 kts 272°
2026-04-30 14:27 51.60082 6.12991 107 ft 23 kts 270°
2026-04-30 14:28 51.60093 6.12496 107 ft 7 kts 279°
2026-04-30 14:28 51.60159 6.12455 110 ft 20 kts
2026-04-30 14:28 51.60278 6.12488 111 ft 10 kts 54°
2026-04-30 14:28 51.60278 6.12601 109 ft 11 kts 89°
2026-04-30 14:29 51.60240 6.14308 122 ft 153 kts 92°
2026-04-30 14:29 51.60172 6.17372 1722 ft 167 kts 93°
2026-04-30 14:30 51.60863 6.24520 3587 ft 227 kts 74°
2026-04-30 14:31 51.61767 6.29752 4937 ft 247 kts 79°
2026-04-30 14:31 51.62715 6.35106 6836 ft 252 kts 78°
2026-04-30 14:31 51.63022 6.37872 7700 ft 252 kts 93°
2026-04-30 14:32 51.62781 6.43585 9380 ft 260 kts 94°
2026-04-30 14:32 51.62692 6.46517 10238 ft 264 kts 93°
2026-04-30 14:32 51.62607 6.49518 10849 ft 277 kts 93°
2026-04-30 14:33 51.62512 6.52770 11040 ft 303 kts 93°
2026-04-30 14:33 51.62294 6.60029 11725 ft 338 kts 93°
2026-04-30 14:33 51.62178 6.63829 12483 ft 341 kts 93°
2026-04-30 14:34 51.62159 6.67664 13227 ft 346 kts 83°
2026-04-30 14:34 51.62873 6.71388 13899 ft 353 kts 64°
2026-04-30 14:34 51.64253 6.74683 14600 ft 358 kts 54°
2026-04-30 14:34 51.65751 6.77810 15268 ft 360 kts 55°
2026-04-30 14:35 51.68277 6.83219 16340 ft 366 kts 55°
2026-04-30 14:35 51.70322 6.87663 17182 ft 371 kts 55°
2026-04-30 14:35 51.71862 6.91025 17820 ft 374 kts 55°
2026-04-30 14:36 51.72887 6.93267 18238 ft 376 kts 55°
2026-04-30 14:36 51.74448 6.96684 18842 ft 380 kts 55°
2026-04-30 14:36 51.76018 7.00126 19378 ft 383 kts 55°
2026-04-30 14:36 51.77600 7.03598 19927 ft 386 kts 55°
2026-04-30 14:37 51.79196 7.07101 20468 ft 388 kts 55°
2026-04-30 14:37 51.80803 7.10635 20994 ft 391 kts 55°
2026-04-30 14:37 51.82398 7.14222 21527 ft 393 kts 59°
2026-04-30 14:37 51.83441 7.18309 21953 ft 396 kts 79°
2026-04-30 14:38 51.83588 7.22747 22517 ft 398 kts 94°
2026-04-30 14:38 51.83027 7.27166 22924 ft 406 kts 109°
2026-04-30 14:38 51.81690 7.31233 23391 ft 412 kts 120°
2026-04-30 14:38 51.80139 7.35131 23911 ft 414 kts 120°
2026-04-30 14:39 51.78584 7.39083 24238 ft 419 kts 120°
2026-04-30 14:39 51.77029 7.43077 24642 ft 421 kts 120°
2026-04-30 14:39 51.75479 7.47092 25053 ft 422 kts 119°
2026-04-30 14:40 51.72244 7.55081 25749 ft 431 kts 128°
2026-04-30 14:40 51.70030 7.58394 26100 ft 438 kts 141°
2026-04-30 14:40 51.67389 7.60912 26479 ft 445 kts 153°
2026-04-30 14:40 51.64465 7.62631 26847 ft 449 kts 159°
2026-04-30 14:41 51.61527 7.64200 27157 ft 452 kts 159°